Hourly Data Report for October 20, 2014

All times are specified in Local Standard Time (LST). Add 1 hour to adjust for Daylight Saving Time where and when it is observed.

KAMLOOPS A
BRITISH COLUMBIA

50°42'09.000" N
120°26'55.000" W
345.30 m
1163781
71887
YKA

Download Data

Hourly Data (October 2014)
Hourly Data Report for October 20, 2014
Temp Definition
°C
Dew Point Temp Definition
°C
Rel Hum Definition
%
Wind Dir Definition
10's deg

Wind Spd Definition
km/h
Visibility Definition
km
Stn Press Definition
kPa
Hmdx Definition


Wind Chill Definition


Weather Definition


TIME
00:00 Legend Double Dagger 15.3 7.4 59 6 18 64.4 96.31     LegendNANA
01:00 Legend Double Dagger 14.5 7.6 63 7 13 64.4 96.34     Mostly Cloudy
02:00 Legend Double Dagger 14.9 8.0 63 6 10 64.4 96.37     LegendNANA
03:00 Legend Double Dagger 14.9 7.8 62 6 8 64.4 96.37     LegendNANA
04:00 Legend Double Dagger 15.1 7.9 62 8 12 64.4 96.35     Cloudy
05:00 Legend Double Dagger 14.7 7.8 63 8 19 64.4 96.31     LegendNANA
06:00 Legend Double Dagger 14.9 7.5 61 8 14 64.4 96.32     LegendNANA
07:00 Legend Double Dagger 14.0 8.5 69 7 21 64.4 96.34     Mostly Cloudy
08:00 Legend Double Dagger 14.4 8.4 67 9 24 64.4 96.32     LegendNANA
09:00 Legend Double Dagger 15.2 8.7 65 8 18 64.4 96.31     LegendNANA
10:00 Legend Double Dagger 15.4 8.9 65 7 23 64.4 96.29     Cloudy
11:00 Legend Double Dagger 16.3 8.8 61 9 23 64.4 96.26     LegendNANA
12:00 Legend Double Dagger 17.5 9.0 57 10 31 64.4 96.19     LegendNANA
13:00 Legend Double Dagger 17.2 9.0 58 12 27 64.4 96.23     Mostly Cloudy
14:00 Legend Double Dagger 19.3 7.5 46 8 14 64.4 96.23     LegendNANA
15:00 Legend Double Dagger 17.8 8.7 55 11 27 64.4 96.23     LegendNANA
16:00 Legend Double Dagger 17.8 6.1 46 14 11 64.4 96.33     Mostly Cloudy
17:00 Legend Double Dagger 15.5 7.8 60 4 13 64.4 96.25     LegendNANA
18:00 Legend Double Dagger 14.8 7.2 60 7 8 64.4 96.29     LegendNANA
19:00 Legend Double Dagger 14.8 6.9 59 5 9 64.4 96.31     Mostly Cloudy
20:00 Legend Double Dagger 14.4 7.7 64 9 15 64.4 96.39     LegendNANA
21:00 Legend Double Dagger 13.8 6.7 62 36 3 64.4 96.37     LegendNANA
22:00 Legend Double Dagger 13.8 6.0 59 7 9 64.4 96.45     Cloudy
23:00 Legend Double Dagger 13.9 7.3 64 13 16 32.2 96.43     Rain

Notes on Data Quality.

Legend

  • E = Estimated
  • M = Missing
  • NA = Not Available
  • ‡ = Partner data that is not subject to review by the National Climate Archives
Date modified: